SL-14 R/B

Satellite information

Favourite Embed

Satellite Type and Status

ROCKET BODYIN ORBIT

Key statistics

Satellite SL-14 R/B at a glance.

Uptime

10963

Days in orbit

Revolutions

≈ 14.8

Per day

Orbit

LEO

Low Earth Orbit

Inclination

82.5

Latest

Satellite identification and parameters

Extended collection of information and parameters for SL-14 R/B.

Object identification

Identified? True

Debris? False

Object name: SL-14 R/B

International designator: 1995-046C

Object number (NORAD): 23659

Object ID (CCSDS): 23659

Country: COMMONWEALTH OF INDEPENDENT STATES (CIS)

Current information (Y/N): Y

RCS size: LARGE

Orbital parameters

Period: 97.291 minutes

Inclination: 82.529 deg

SMA: 7007.154 km

Apoapsis: 647.21 km

Periapsis: 610.828 km

RAAN: 39.9744 deg

Eccentricy: 0.00259609

Argument of periapsis: 132.4583 deg

Mean anomaly: 40.5056 deg

Mean motion: 14.80097311 rev/day

Mean motion (dot): 0.00001006 rev/day2

B* drag term: 0.00012898093 1/REarth

Two-line elements (TLE)

Creation date: Sept. 3, 2025, 10:15 a.m.

Reference frame: TEME

Reference center: EARTH

Epoch: Sept. 3, 2025, 4:31 a.m. UTC

TLE line 0: 0 SL-14 R/B

TLE line 1: 1 23659U 95046C 25246.18856396 .00001006 00000-0 12898-3 0 9992

TLE line 2: 2 23659 82.5290 39.9744 0025961 132.4583 40.5056 14.80097311617556

Live tracking on map

Real-time ground track for satellite SL-14 R/B.

In-orbit conjunctions

A list of the most updated potential collisions computed for object SL-14 R/B.

Target Orbit TCA Probability of collision Miss distance Type
CZ-6A DEB SSO 2025-01-05 19:36:58 0.0001476945 213.0 (m) DEBRIS
CZ-6A DEB SSO 2024-07-26 01:25:09 0.0002188589 191.0 (m) DEBRIS

Associated space launch

Ocean observation satellite

SL-14 R/B was lifted into orbit during the mission ‘Tsiklon-3 | Okean-O1 8’, on board a Tsiklon-3 space rocket.

The launch took place on Aug. 31, 1995, 6:49 a.m. from 32/2.

For more information about the launch, click the button.

Launch to space Tsiklon-3 | Okean-O1 8
Tsiklon-3 | Okean-O1 8

Agency: N/A

Status: Launch Successful

Launch date: Aug. 31, 1995, 6:49 a.m. UTC

Rocket: Tsiklon-3

Launch pad: 32/2

Location: Plesetsk Cosmodrome, Russian Federation

...

Latest news about this satellite

There are no fresh news available about this satellite. Check back as we update our databases every day.


Newsletter sign-up

Weekly statistics, charts and insights to help you stay on top of the space industry.